Time,TemperatureF,DewpointF,PressureIn,WindDirection,WindDirectionDegrees,WindSpeedMPH,WindSpeedGustMPH,Humidity,HourlyPrecipIn,Conditions,Clouds,dailyrainin,SoftwareType,DateUTC
2013-01-18 00:00:00,37.9,31.0,30.08,SW,220,0.0,4.0,76,0.00,,---,0.02,VWS V14.01,2013-01-18 05:00:00,
2013-01-18 00:01:00,37.9,31.0,30.08,SW,221,0.0,4.0,76,0.00,,---,0.02,VWS V14.01,2013-01-18 05:01:00,
2013-01-18 00:06:00,37.9,30.7,30.08,NNE,26,4.0,4.0,75,0.00,,---,0.00,VWS V14.01,2013-01-18 05:06:00,
2013-01-18 00:11:00,38.0,30.8,30.07,West,269,1.0,4.0,75,0.00,,---,0.00,VWS V14.01,2013-01-18 05:11:00,
2013-01-18 00:16:00,38.0,31.1,30.06,NNW,329,1.0,4.0,76,0.00,,---,0.00,VWS V14.01,2013-01-18 05:16:00,
2013-01-18 00:21:00,37.9,31.0,30.11,WNW,295,0.0,4.0,76,0.00,,---,0.00,VWS V14.01,2013-01-18 05:21:00,
2013-01-18 00:26:00,38.0,31.1,30.13,SW,235,2.0,4.0,76,0.00,,---,0.00,VWS V14.01,2013-01-18 05:26:00,
2013-01-18 00:31:00,38.0,30.8,30.14,West,267,1.0,4.0,75,0.00,,---,0.00,VWS V14.01,2013-01-18 05:31:00,
2013-01-18 00:36:00,38.0,30.8,30.15,SW,228,0.0,1.0,75,0.00,,---,0.00,VWS V14.01,2013-01-18 05:36:00,
2013-01-18 00:41:00,38.0,30.8,30.14,NW,312,0.0,2.0,75,0.00,,---,0.00,VWS V14.01,2013-01-18 05:41:00,
2013-01-18 00:46:00,37.9,30.7,30.13,NW,325,0.0,2.0,75,0.00,,---,0.00,VWS V14.01,2013-01-18 05:46:00,
2013-01-18 00:51:00,37.9,31.0,30.13,South,187,0.0,2.0,76,0.00,,---,0.00,VWS V14.01,2013-01-18 05:51:00,
2013-01-18 00:56:00,37.7,30.5,30.13,South,187,0.0,2.0,75,0.00,,---,0.00,VWS V14.01,2013-01-18 05:56:00,
2013-01-18 01:01:00,37.6,30.7,30.12,South,187,0.0,2.0,76,0.00,,---,0.00,VWS V14.01,2013-01-18 06:01:00,
2013-01-18 01:06:00,37.6,30.7,30.12,North,356,0.0,2.0,76,0.00,,---,0.00,VWS V14.01,2013-01-18 06:06:00,
2013-01-18 01:11:00,37.6,30.7,30.12,WNW,289,0.0,3.0,76,0.00,,---,0.00,VWS V14.01,2013-01-18 06:11:00,
2013-01-18 01:16:00,37.6,30.4,30.13,West,267,0.0,3.0,75,0.00,,---,0.00,VWS V14.01,2013-01-18 06:16:00,
2013-01-18 01:21:00,37.6,30.4,30.13,NNE,20,0.0,3.0,75,0.00,,---,0.00,VWS V14.01,2013-01-18 06:21:00,
2013-01-18 01:26:00,37.5,30.3,30.14,NW,309,0.0,3.0,75,0.00,,---,0.00,VWS V14.01,2013-01-18 06:26:00,
2013-01-18 01:31:00,37.6,30.4,30.14,West,274,2.0,3.0,75,0.00,,---,0.00,VWS V14.01,2013-01-18 06:31:00,
2013-01-18 01:36:00,37.6,30.4,30.14,WSW,252,0.0,1.0,75,0.00,,---,0.00,VWS V14.01,2013-01-18 06:36:00,
2013-01-18 01:41:00,37.5,30.3,30.15,West,273,0.0,2.0,75,0.00,,---,0.00,VWS V14.01,2013-01-18 06:41:00,
2013-01-18 01:46:00,37.4,29.9,30.15,NNE,15,0.0,3.0,74,0.00,,---,0.00,VWS V14.01,2013-01-18 06:46:00,
2013-01-18 01:51:00,37.3,29.8,30.16,West,272,0.0,3.0,74,0.00,,---,0.00,VWS V14.01,2013-01-18 06:51:00,
2013-01-18 01:56:00,37.2,30.0,30.16,WSW,250,0.0,3.0,75,0.00,,---,0.00,VWS V14.01,2013-01-18 06:56:00,
2013-01-18 02:01:00,37.1,29.9,30.16,NW,314,0.0,3.0,75,0.00,,---,0.00,VWS V14.01,2013-01-18 07:01:00,
2013-01-18 02:06:00,37.0,29.8,30.16,West,278,1.0,1.0,75,0.00,,---,0.00,VWS V14.01,2013-01-18 07:06:00,
2013-01-18 02:11:00,37.0,29.5,30.16,West,264,0.0,3.0,74,0.00,,---,0.00,VWS V14.01,2013-01-18 07:11:00,
2013-01-18 02:16:00,37.0,29.5,30.16,North,5,0.0,3.0,74,0.00,,---,0.00,VWS V14.01,2013-01-18 07:16:00,
2013-01-18 02:21:00,36.8,29.0,30.16,SSW,203,0.0,3.0,73,0.00,,---,0.00,VWS V14.01,2013-01-18 07:21:00,
2013-01-18 02:26:00,36.6,29.1,30.17,West,276,0.0,3.0,74,0.00,,---,0.00,VWS V14.01,2013-01-18 07:26:00,
2013-01-18 02:31:00,36.4,29.2,30.17,SW,229,1.0,3.0,75,0.00,,---,0.00,VWS V14.01,2013-01-18 07:31:00,
2013-01-18 02:36:00,36.1,29.0,30.17,SW,235,0.0,0.0,75,0.00,,---,0.00,VWS V14.01,2013-01-18 07:36:00,
2013-01-18 02:41:00,35.9,28.8,30.17,WSW,238,0.0,1.0,75,0.00,,---,0.00,VWS V14.01,2013-01-18 07:41:00,
2013-01-18 02:46:00,35.7,28.9,30.17,WNW,284,0.0,1.0,76,0.00,,---,0.00,VWS V14.01,2013-01-18 07:46:00,
2013-01-18 02:51:00,35.6,28.8,30.17,West,277,0.0,1.0,76,0.00,,---,0.00,VWS V14.01,2013-01-18 07:51:00,
2013-01-18 02:56:00,35.6,28.8,30.17,West,273,0.0,1.0,76,0.00,,---,0.00,VWS V14.01,2013-01-18 07:56:00,
2013-01-18 03:01:00,35.7,28.6,30.18,East,79,0.0,2.0,75,0.00,,---,0.00,VWS V14.01,2013-01-18 08:01:00,
2013-01-18 03:06:00,35.8,28.3,30.18,West,263,0.0,3.0,74,0.00,,---,0.00,VWS V14.01,2013-01-18 08:06:00,
2013-01-18 03:11:00,35.9,28.4,30.18,WNW,297,0.0,6.0,74,0.00,,---,0.00,VWS V14.01,2013-01-18 08:11:00,
2013-01-18 03:16:00,35.9,28.4,30.18,NNE,13,2.0,6.0,74,0.00,,---,0.00,VWS V14.01,2013-01-18 08:16:00,
2013-01-18 03:21:00,35.8,28.0,30.18,SW,218,0.0,6.0,73,0.00,,---,0.00,VWS V14.01,2013-01-18 08:21:00,
2013-01-18 03:26:00,35.7,27.9,30.18,West,267,1.0,6.0,73,0.00,,---,0.00,VWS V14.01,2013-01-18 08:26:00,
2013-01-18 03:31:00,35.8,28.0,30.18,WNW,293,1.0,6.0,73,0.00,,---,0.00,VWS V14.01,2013-01-18 08:31:00,
2013-01-18 03:36:00,35.9,27.8,30.18,West,271,4.0,7.0,72,0.00,,---,0.00,VWS V14.01,2013-01-18 08:36:00,
2013-01-18 03:41:00,36.1,27.6,30.19,West,281,1.0,7.0,71,0.00,,---,0.00,VWS V14.01,2013-01-18 08:41:00,
2013-01-18 03:46:00,36.1,27.6,30.19,ENE,70,2.0,7.0,71,0.00,,---,0.00,VWS V14.01,2013-01-18 08:46:00,
2013-01-18 03:51:00,36.1,27.6,30.19,West,270,1.0,7.0,71,0.00,,---,0.00,VWS V14.01,2013-01-18 08:51:00,
2013-01-18 03:56:00,36.1,27.3,30.19,WSW,251,1.0,8.0,70,0.00,,---,0.00,VWS V14.01,2013-01-18 08:56:00,
2013-01-18 04:01:00,36.1,27.3,30.19,ESE,116,2.0,8.0,70,0.00,,---,0.00,VWS V14.01,2013-01-18 09:01:00,
2013-01-18 04:06:00,36.0,27.2,30.20,West,262,6.0,6.0,70,0.00,,---,0.00,VWS V14.01,2013-01-18 09:06:00,
2013-01-18 04:11:00,36.0,27.2,30.20,WNW,285,2.0,6.0,70,0.00,,---,0.00,VWS V14.01,2013-01-18 09:11:00,
2013-01-18 04:16:00,36.1,27.3,30.21,NW,318,2.0,6.0,70,0.00,,---,0.00,VWS V14.01,2013-01-18 09:16:00,
2013-01-18 04:21:00,36.1,27.3,30.21,ESE,120,0.0,6.0,70,0.00,,---,0.00,VWS V14.01,2013-01-18 09:21:00,
2013-01-18 04:26:00,36.1,26.9,30.21,SW,231,2.0,6.0,69,0.00,,---,0.00,VWS V14.01,2013-01-18 09:26:00,
2013-01-18 04:31:00,36.0,26.8,30.21,NW,320,0.0,6.0,69,0.00,,---,0.00,VWS V14.01,2013-01-18 09:31:00,
2013-01-18 04:36:00,36.1,26.6,30.22,ESE,117,0.0,5.0,68,0.00,,---,0.00,VWS V14.01,2013-01-18 09:36:00,
2013-01-18 04:41:00,36.1,26.6,30.22,West,262,1.0,5.0,68,0.00,,---,0.00,VWS V14.01,2013-01-18 09:41:00,
2013-01-18 04:46:00,36.1,26.2,30.22,West,266,2.0,5.0,67,0.00,,---,0.00,VWS V14.01,2013-01-18 09:46:00,
2013-01-18 04:51:00,36.3,26.0,30.22,West,264,0.0,5.0,66,0.00,,---,0.00,VWS V14.01,2013-01-18 09:51:00,
2013-01-18 04:56:00,36.4,26.1,30.22,WSW,239,0.0,5.0,66,0.00,,---,0.00,VWS V14.01,2013-01-18 09:56:00,
2013-01-18 05:01:00,36.5,25.9,30.23,WNW,290,1.0,5.0,65,0.00,,---,0.00,VWS V14.01,2013-01-18 10:01:00,
2013-01-18 05:06:00,36.6,25.6,30.23,NW,307,1.0,4.0,64,0.00,,---,0.00,VWS V14.01,2013-01-18 10:06:00,
2013-01-18 05:11:00,36.6,25.6,30.24,WNW,285,3.0,6.0,64,0.00,,---,0.00,VWS V14.01,2013-01-18 10:11:00,
2013-01-18 05:16:00,36.8,25.4,30.24,WSW,250,0.0,6.0,63,0.00,,---,0.00,VWS V14.01,2013-01-18 10:16:00,
2013-01-18 05:21:00,36.6,25.6,30.24,West,271,1.0,6.0,64,0.00,,---,0.00,VWS V14.01,2013-01-18 10:21:00,
2013-01-18 05:26:00,36.5,25.1,30.24,SE,145,1.0,8.0,63,0.00,,---,0.00,VWS V14.01,2013-01-18 10:26:00,
2013-01-18 05:31:00,36.4,25.0,30.25,WNW,293,2.0,8.0,63,0.00,,---,0.00,VWS V14.01,2013-01-18 10:31:00,
2013-01-18 05:36:00,36.3,24.9,30.25,West,281,4.0,5.0,63,0.00,,---,0.00,VWS V14.01,2013-01-18 10:36:00,
2013-01-18 05:41:00,36.2,24.8,30.25,West,266,1.0,5.0,63,0.00,,---,0.00,VWS V14.01,2013-01-18 10:41:00,
2013-01-18 05:46:00,36.2,24.8,30.26,NE,45,3.0,6.0,63,0.00,,---,0.00,VWS V14.01,2013-01-18 10:46:00,
2013-01-18 05:51:00,36.1,25.1,30.26,SW,235,0.0,6.0,64,0.00,,---,0.00,VWS V14.01,2013-01-18 10:51:00,
2013-01-18 05:56:00,36.0,24.6,30.26,WNW,302,5.0,6.0,63,0.00,,---,0.00,VWS V14.01,2013-01-18 10:56:00,
2013-01-18 06:01:00,36.1,24.0,30.26,WNW,287,1.0,11.0,61,0.00,,---,0.00,VWS V14.01,2013-01-18 11:01:00,
2013-01-18 06:06:00,36.1,24.0,30.27,North,9,4.0,5.0,61,0.00,,---,0.00,VWS V14.01,2013-01-18 11:06:00,
2013-01-18 06:11:00,36.0,23.9,30.27,SSW,201,2.0,5.0,61,0.00,,---,0.00,VWS V14.01,2013-01-18 11:11:00,
2013-01-18 06:16:00,36.1,23.6,30.28,NNW,333,2.0,9.0,60,0.00,,---,0.00,VWS V14.01,2013-01-18 11:16:00,
2013-01-18 06:21:00,36.0,23.5,30.28,NNE,32,2.0,9.0,60,0.00,,---,0.00,VWS V14.01,2013-01-18 11:21:00,
2013-01-18 06:26:00,35.8,23.7,30.29,WNW,294,2.0,9.0,61,0.00,,---,0.00,VWS V14.01,2013-01-18 11:26:00,
2013-01-18 06:31:00,35.6,22.7,30.29,WNW,298,2.0,9.0,59,0.00,,---,0.00,VWS V14.01,2013-01-18 11:31:00,
2013-01-18 06:36:00,35.5,23.4,30.29,WNW,289,1.0,3.0,61,0.00,,---,0.00,VWS V14.01,2013-01-18 11:36:00,
2013-01-18 06:41:00,35.4,23.3,30.30,ENE,72,0.0,3.0,61,0.00,,---,0.00,VWS V14.01,2013-01-18 11:41:00,
2013-01-18 06:46:00,35.4,23.3,30.30,WNW,298,2.0,3.0,61,0.00,,---,0.00,VWS V14.01,2013-01-18 11:46:00,
2013-01-18 06:51:00,35.5,22.6,30.31,NE,54,1.0,4.0,59,0.00,,---,0.00,VWS V14.01,2013-01-18 11:51:00,
2013-01-18 06:56:00,35.4,22.5,30.31,NE,37,0.0,5.0,59,0.00,,---,0.00,VWS V14.01,2013-01-18 11:56:00,
2013-01-18 07:01:00,35.3,22.4,30.32,SSE,166,1.0,5.0,59,0.00,,---,0.00,VWS V14.01,2013-01-18 12:01:00,
2013-01-18 07:06:00,35.5,23.4,30.33,NNE,28,1.0,13.0,61,0.00,,---,0.00,VWS V14.01,2013-01-18 12:06:00,
2013-01-18 07:11:00,35.4,23.7,30.33,WNW,295,6.0,13.0,62,0.00,,---,0.00,VWS V14.01,2013-01-18 12:11:00,
2013-01-18 07:16:00,35.2,23.1,30.34,NNW,329,2.0,13.0,61,0.00,,---,0.00,VWS V14.01,2013-01-18 12:16:00,
2013-01-18 07:21:00,34.9,23.2,30.35,East,80,3.0,13.0,62,0.00,,---,0.00,VWS V14.01,2013-01-18 12:21:00,
2013-01-18 07:26:00,34.7,23.4,30.35,NNW,333,2.0,13.0,63,0.00,,---,0.00,VWS V14.01,2013-01-18 12:26:00,
2013-01-18 07:31:00,34.5,23.2,30.36,WNW,288,0.0,13.0,63,0.00,,---,0.00,VWS V14.01,2013-01-18 12:31:00,
2013-01-18 07:35:00,34.3,23.0,30.36,NW,326,4.0,4.0,63,0.00,,---,0.00,VWS V14.01,2013-01-18 12:35:00,
2013-01-18 07:40:00,34.2,22.9,30.36,South,173,3.0,7.0,63,0.00,,---,0.00,VWS V14.01,2013-01-18 12:40:00,
2013-01-18 07:45:00,34.1,22.1,30.36,West,274,5.0,11.0,61,0.00,,---,0.00,VWS V14.01,2013-01-18 12:45:00,
2013-01-18 07:50:00,34.0,21.6,30.37,NW,305,4.0,11.0,60,0.00,,---,0.00,VWS V14.01,2013-01-18 12:50:00,
2013-01-18 07:55:00,33.8,21.8,30.38,WNW,291,3.0,11.0,61,0.00,,---,0.00,VWS V14.01,2013-01-18 12:55:00,
2013-01-18 08:00:00,33.7,21.7,30.38,North,351,3.0,11.0,61,0.00,,---,0.00,VWS V14.01,2013-01-18 13:00:00,
2013-01-18 08:05:00,33.7,22.1,30.39,North,352,6.0,12.0,62,0.00,,---,0.00,VWS V14.01,2013-01-18 13:05:00,
2013-01-18 08:10:00,33.5,22.3,30.40,WNW,298,6.0,13.0,63,0.00,,---,0.00,VWS V14.01,2013-01-18 13:10:00,
2013-01-18 08:15:00,33.2,22.4,30.40,WSW,258,2.0,13.0,64,0.00,,---,0.00,VWS V14.01,2013-01-18 13:15:00,
2013-01-18 08:20:00,33.0,22.2,30.41,West,281,1.0,13.0,64,0.00,,---,0.00,VWS V14.01,2013-01-18 13:20:00,
2013-01-18 08:25:00,32.8,22.0,30.42,SSW,212,4.0,13.0,64,0.00,,---,0.00,VWS V14.01,2013-01-18 13:25:00,
2013-01-18 08:30:00,32.7,21.9,30.42,SSE,167,1.0,13.0,64,0.00,,---,0.00,VWS V14.01,2013-01-18 13:30:00,
2013-01-18 08:35:00,32.7,22.2,30.43,East,92,3.0,4.0,65,0.00,,---,0.00,VWS V14.01,2013-01-18 13:35:00,
2013-01-18 08:40:00,32.9,22.1,30.43,SSW,208,1.0,4.0,64,0.00,,---,0.00,VWS V14.01,2013-01-18 13:40:00,
2013-01-18 08:45:00,33.0,21.8,30.44,NW,318,1.0,8.0,63,0.00,,---,0.00,VWS V14.01,2013-01-18 13:45:00,
2013-01-18 08:50:00,33.1,21.1,30.44,NNE,20,2.0,8.0,61,0.00,,---,0.00,VWS V14.01,2013-01-18 13:50:00,
2013-01-18 08:55:00,33.2,20.8,30.45,WSW,243,0.0,8.0,60,0.00,,---,0.00,VWS V14.01,2013-01-18 13:55:00,
2013-01-18 09:00:00,33.4,21.4,30.45,WNW,295,3.0,8.0,61,0.00,,---,0.00,VWS V14.01,2013-01-18 14:00:00,
2013-01-18 09:05:00,33.6,21.6,30.45,WNW,297,1.0,3.0,61,0.00,,---,0.00,VWS V14.01,2013-01-18 14:05:00,
2013-01-18 09:10:00,33.8,21.8,30.45,WNW,300,2.0,7.0,61,0.00,,---,0.00,VWS V14.01,2013-01-18 14:10:00,
2013-01-18 09:15:00,33.6,21.6,30.45,WNW,295,2.0,7.0,61,0.00,,---,0.00,VWS V14.01,2013-01-18 14:15:00,
2013-01-18 09:20:00,33.6,21.6,30.46,WSW,246,3.0,7.0,61,0.00,,---,0.00,VWS V14.01,2013-01-18 14:20:00,
2013-01-18 09:25:00,33.4,21.0,30.46,SW,224,2.0,10.0,60,0.00,,---,0.00,VWS V14.01,2013-01-18 14:25:00,
2013-01-18 09:30:00,33.1,20.7,30.47,NNW,341,4.0,10.0,60,0.00,,---,0.00,VWS V14.01,2013-01-18 14:30:00,
2013-01-18 09:35:00,33.0,19.9,30.48,West,275,3.0,8.0,58,0.00,,---,0.00,VWS V14.01,2013-01-18 14:35:00,
2013-01-18 09:40:00,33.1,19.1,30.49,NNE,20,1.0,8.0,56,0.00,,---,0.00,VWS V14.01,2013-01-18 14:40:00,
2013-01-18 09:45:00,33.3,19.3,30.49,West,263,0.0,8.0,56,0.00,,---,0.00,VWS V14.01,2013-01-18 14:45:00,
2013-01-18 09:50:00,33.6,18.3,30.49,WSW,249,3.0,10.0,53,0.00,,---,0.00,VWS V14.01,2013-01-18 14:50:00,
2013-01-18 09:55:00,33.8,18.9,30.49,North,354,3.0,10.0,54,0.00,,---,0.00,VWS V14.01,2013-01-18 14:55:00,
2013-01-18 10:00:00,34.1,19.6,30.49,WSW,238,2.0,10.0,55,0.00,,---,0.00,VWS V14.01,2013-01-18 15:00:00,
2013-01-18 10:05:00,34.5,20.0,30.50,NNW,334,3.0,7.0,55,0.00,,---,0.00,VWS V14.01,2013-01-18 15:05:00,
2013-01-18 10:10:00,34.5,19.1,30.50,NE,37,2.0,7.0,53,0.00,,---,0.00,VWS V14.01,2013-01-18 15:10:00,
2013-01-18 10:15:00,34.4,18.2,30.50,North,1,6.0,9.0,51,0.00,,---,0.00,VWS V14.01,2013-01-18 15:15:00,
2013-01-18 10:20:00,34.2,18.0,30.50,WNW,291,3.0,9.0,51,0.00,,---,0.00,VWS V14.01,2013-01-18 15:20:00,
2013-01-18 10:25:00,34.0,17.3,30.50,West,263,4.0,9.0,50,0.00,,---,0.00,VWS V14.01,2013-01-18 15:25:00,
2013-01-18 10:30:00,33.9,16.8,30.50,NNW,339,1.0,9.0,49,0.00,,---,0.00,VWS V14.01,2013-01-18 15:30:00,
2013-01-18 10:35:00,34.2,17.0,30.51,NNE,22,2.0,7.0,49,0.00,,---,0.00,VWS V14.01,2013-01-18 15:35:00,
2013-01-18 10:40:00,34.3,16.7,30.51,NE,49,7.0,8.0,48,0.00,,---,0.00,VWS V14.01,2013-01-18 15:40:00,
2013-01-18 10:45:00,34.1,16.0,30.51,NNE,16,1.0,8.0,47,0.00,,---,0.00,VWS V14.01,2013-01-18 15:45:00,
2013-01-18 10:50:00,34.2,15.6,30.51,NW,310,3.0,8.0,46,0.00,,---,0.00,VWS V14.01,2013-01-18 15:50:00,
2013-01-18 10:55:00,34.3,16.2,30.50,WNW,298,3.0,8.0,47,0.00,,---,0.00,VWS V14.01,2013-01-18 15:55:00,
2013-01-18 11:00:00,34.7,16.5,30.50,NW,315,3.0,8.0,47,0.00,,---,0.00,VWS V14.01,2013-01-18 16:00:00,
2013-01-18 11:05:00,35.1,16.9,30.51,NW,308,2.0,5.0,47,0.00,,---,0.00,VWS V14.01,2013-01-18 16:05:00,
2013-01-18 11:10:00,34.9,14.7,30.51,North,8,1.0,7.0,43,0.00,,---,0.00,VWS V14.01,2013-01-18 16:10:00,
2013-01-18 11:15:00,34.7,14.5,30.52,SW,231,4.0,7.0,43,0.00,,---,0.00,VWS V14.01,2013-01-18 16:15:00,
2013-01-18 11:20:00,34.3,13.1,30.52,East,98,2.0,9.0,41,0.00,,---,0.00,VWS V14.01,2013-01-18 16:20:00,
2013-01-18 11:25:00,34.2,13.0,30.51,SE,138,1.0,9.0,41,0.00,,---,0.00,VWS V14.01,2013-01-18 16:25:00,
2013-01-18 11:30:00,34.6,14.9,30.51,NNW,329,7.0,9.0,44,0.00,,---,0.00,VWS V14.01,2013-01-18 16:30:00,
2013-01-18 11:35:00,34.5,13.2,30.51,NNW,332,2.0,6.0,41,0.00,,---,0.00,VWS V14.01,2013-01-18 16:35:00,
2013-01-18 11:40:00,34.6,13.3,30.51,SW,228,1.0,9.0,41,0.00,,---,0.00,VWS V14.01,2013-01-18 16:40:00,
2013-01-18 11:45:00,34.6,13.3,30.51,SW,227,2.0,9.0,41,0.00,,---,0.00,VWS V14.01,2013-01-18 16:45:00,
2013-01-18 11:50:00,34.5,12.7,30.51,NW,320,4.0,10.0,40,0.00,,---,0.00,VWS V14.01,2013-01-18 16:50:00,
2013-01-18 11:55:00,34.7,14.0,30.51,West,277,2.0,10.0,42,0.00,,---,0.00,VWS V14.01,2013-01-18 16:55:00,
2013-01-18 12:00:00,34.8,14.1,30.51,SW,231,2.0,10.0,42,0.00,,---,0.00,VWS V14.01,2013-01-18 17:00:00,
2013-01-18 12:05:00,35.1,13.8,30.51,WSW,240,2.0,4.0,41,0.00,,---,0.00,VWS V14.01,2013-01-18 17:05:00,
2013-01-18 12:10:00,34.9,12.5,30.50,NW,309,3.0,8.0,39,0.00,,---,0.00,VWS V14.01,2013-01-18 17:10:00,
2013-01-18 12:15:00,34.7,11.1,30.50,WSW,256,3.0,9.0,37,0.00,,---,0.00,VWS V14.01,2013-01-18 17:15:00,
2013-01-18 12:20:00,34.6,12.2,30.50,NNW,329,5.0,9.0,39,0.00,,---,0.00,VWS V14.01,2013-01-18 17:20:00,
2013-01-18 12:25:00,34.6,13.3,30.51,NNE,20,6.0,9.0,41,0.00,,---,0.00,VWS V14.01,2013-01-18 17:25:00,
2013-01-18 12:30:00,34.9,12.5,30.50,WSW,255,2.0,11.0,39,0.00,,---,0.00,VWS V14.01,2013-01-18 17:30:00,
2013-01-18 12:35:00,34.4,11.4,30.50,North,8,1.0,6.0,38,0.00,,---,0.00,VWS V14.01,2013-01-18 17:35:00,
2013-01-18 12:40:00,34.8,11.8,30.50,East,98,1.0,8.0,38,0.00,,---,0.00,VWS V14.01,2013-01-18 17:40:00,
2013-01-18 12:45:00,34.9,10.7,30.50,NNW,340,4.0,9.0,36,0.00,,---,0.00,VWS V14.01,2013-01-18 17:45:00,
2013-01-18 12:50:00,34.7,11.1,30.50,ENE,57,6.0,12.0,37,0.00,,---,0.00,VWS V14.01,2013-01-18 17:50:00,
2013-01-18 12:55:00,34.5,11.5,30.50,North,349,2.0,12.0,38,0.00,,---,0.00,VWS V14.01,2013-01-18 17:55:00,
2013-01-18 13:00:00,34.5,10.9,30.49,NE,46,4.0,12.0,37,0.00,,---,0.00,VWS V14.01,2013-01-18 18:00:00,
2013-01-18 13:05:00,34.4,10.2,30.49,WNW,282,8.0,8.0,36,0.00,,---,0.00,VWS V14.01,2013-01-18 18:05:00,
2013-01-18 13:10:00,34.4,10.2,30.49,NNW,347,0.0,9.0,36,0.00,,---,0.00,VWS V14.01,2013-01-18 18:10:00,
2013-01-18 13:15:00,34.7,11.7,30.49,WNW,300,4.0,10.0,38,0.00,,---,0.00,VWS V14.01,2013-01-18 18:15:00,
2013-01-18 13:20:00,34.7,10.5,30.49,WNW,293,2.0,10.0,36,0.00,,---,0.00,VWS V14.01,2013-01-18 18:20:00,
2013-01-18 13:25:00,34.8,11.2,30.50,SW,231,0.0,10.0,37,0.00,,---,0.00,VWS V14.01,2013-01-18 18:25:00,
2013-01-18 13:30:00,34.8,11.2,30.50,NNW,329,6.0,10.0,37,0.00,,---,0.00,VWS V14.01,2013-01-18 18:30:00,
2013-01-18 13:35:00,34.5,11.5,30.50,NNE,20,3.0,3.0,38,0.00,,---,0.00,VWS V14.01,2013-01-18 18:35:00,
2013-01-18 13:40:00,35.2,12.7,30.50,WSW,242,2.0,6.0,39,0.00,,---,0.00,VWS V14.01,2013-01-18 18:40:00,
2013-01-18 13:45:00,35.2,12.7,30.50,NE,53,2.0,6.0,39,0.00,,---,0.00,VWS V14.01,2013-01-18 18:45:00,
2013-01-18 13:50:00,35.4,12.9,30.50,SSW,200,0.0,6.0,39,0.00,,---,0.00,VWS V14.01,2013-01-18 18:50:00,
2013-01-18 13:55:00,35.5,11.2,30.51,NNW,335,0.0,6.0,36,0.00,,---,0.00,VWS V14.01,2013-01-18 18:55:00,
2013-01-18 14:00:00,35.5,11.8,30.51,East,82,1.0,7.0,37,0.00,,---,0.00,VWS V14.01,2013-01-18 19:00:00,
2013-01-18 14:05:00,35.4,11.7,30.51,WSW,242,2.0,5.0,37,0.00,,---,0.00,VWS V14.01,2013-01-18 19:05:00,
2013-01-18 14:10:00,35.5,13.0,30.51,West,279,1.0,6.0,39,0.00,,---,0.00,VWS V14.01,2013-01-18 19:10:00,
2013-01-18 14:15:00,35.5,11.8,30.51,NNW,333,3.0,8.0,37,0.00,,---,0.00,VWS V14.01,2013-01-18 19:15:00,
2013-01-18 14:20:00,35.5,13.0,30.51,NNW,331,0.0,8.0,39,0.00,,---,0.00,VWS V14.01,2013-01-18 19:20:00,
2013-01-18 14:25:00,36.3,14.3,30.51,West,277,1.0,8.0,40,0.00,,---,0.00,VWS V14.01,2013-01-18 19:25:00,
2013-01-18 14:30:00,36.5,12.7,30.51,WNW,295,2.0,8.0,37,0.00,,---,0.00,VWS V14.01,2013-01-18 19:30:00,
2013-01-18 14:35:00,36.4,13.2,30.51,WNW,285,1.0,4.0,38,0.00,,---,0.00,VWS V14.01,2013-01-18 19:35:00,
2013-01-18 14:40:00,36.4,12.6,30.51,WNW,288,1.0,5.0,37,0.00,,---,0.00,VWS V14.01,2013-01-18 19:40:00,
2013-01-18 14:45:00,36.3,11.9,30.51,NE,46,0.0,6.0,36,0.00,,---,0.00,VWS V14.01,2013-01-18 19:45:00,
2013-01-18 14:50:00,36.5,13.9,30.51,NNW,330,0.0,6.0,39,0.00,,---,0.00,VWS V14.01,2013-01-18 19:50:00,
2013-01-18 14:55:00,36.4,12.0,30.52,WSW,242,0.0,6.0,36,0.00,,---,0.00,VWS V14.01,2013-01-18 19:55:00,
2013-01-18 15:00:00,36.8,13.6,30.52,North,357,1.0,6.0,38,0.00,,---,0.00,VWS V14.01,2013-01-18 20:00:00,
2013-01-18 15:05:00,36.8,13.0,30.52,NNW,329,2.0,5.0,37,0.00,,---,0.00,VWS V14.01,2013-01-18 20:05:00,
2013-01-18 15:10:00,36.7,14.1,30.51,WNW,289,0.0,5.0,39,0.00,,---,0.00,VWS V14.01,2013-01-18 20:10:00,
2013-01-18 15:15:00,37.7,15.0,30.51,WNW,302,2.0,5.0,39,0.00,,---,0.00,VWS V14.01,2013-01-18 20:15:00,
2013-01-18 15:20:00,37.8,15.1,30.51,SE,140,0.0,5.0,39,0.00,,---,0.00,VWS V14.01,2013-01-18 20:20:00,
2013-01-18 15:25:00,37.4,13.5,30.52,West,267,1.0,6.0,37,0.00,,---,0.00,VWS V14.01,2013-01-18 20:25:00,
2013-01-18 15:30:00,37.4,14.1,30.52,WNW,295,1.0,6.0,38,0.00,,---,0.00,VWS V14.01,2013-01-18 20:30:00,
2013-01-18 15:35:00,37.4,13.5,30.52,NNW,340,1.0,3.0,37,0.00,,---,0.00,VWS V14.01,2013-01-18 20:35:00,
2013-01-18 15:40:00,37.6,14.3,30.52,East,82,0.0,3.0,38,0.00,,---,0.00,VWS V14.01,2013-01-18 20:40:00,
2013-01-18 15:45:00,38.0,14.7,30.52,SW,235,0.0,3.0,38,0.00,,---,0.00,VWS V14.01,2013-01-18 20:45:00,
2013-01-18 15:50:00,38.3,13.7,30.52,NW,325,1.0,3.0,36,0.00,,---,0.00,VWS V14.01,2013-01-18 20:50:00,
2013-01-18 15:55:00,38.1,13.5,30.52,NNW,328,0.0,3.0,36,0.00,,---,0.00,VWS V14.01,2013-01-18 20:55:00,
2013-01-18 16:00:00,37.8,14.5,30.52,WNW,283,0.0,3.0,38,0.00,,---,0.00,VWS V14.01,2013-01-18 21:00:00,
2013-01-18 16:05:00,37.5,14.2,30.52,West,262,1.0,2.0,38,0.00,,---,0.00,VWS V14.01,2013-01-18 21:05:00,
2013-01-18 16:10:00,37.6,14.3,30.52,West,278,0.0,2.0,38,0.00,,---,0.00,VWS V14.01,2013-01-18 21:10:00,
2013-01-18 16:15:00,37.9,15.2,30.52,NNE,18,1.0,2.0,39,0.00,,---,0.00,VWS V14.01,2013-01-18 21:15:00,
2013-01-18 16:20:00,37.5,14.8,30.52,NNE,16,0.0,2.0,39,0.00,,---,0.00,VWS V14.01,2013-01-18 21:20:00,
2013-01-18 16:25:00,37.4,14.7,30.52,NW,316,0.0,2.0,39,0.00,,---,0.00,VWS V14.01,2013-01-18 21:25:00,
2013-01-18 16:30:00,37.0,14.9,30.52,WNW,289,1.0,5.0,40,0.00,,---,0.00,VWS V14.01,2013-01-18 21:30:00,
2013-01-18 16:35:00,36.4,14.4,30.53,West,276,1.0,1.0,40,0.00,,---,0.00,VWS V14.01,2013-01-18 21:35:00,
2013-01-18 16:40:00,35.9,14.5,30.53,North,350,1.0,3.0,41,0.00,,---,0.00,VWS V14.01,2013-01-18 21:40:00,
2013-01-18 16:45:00,35.7,14.3,30.53,NNW,335,0.0,3.0,41,0.00,,---,0.00,VWS V14.01,2013-01-18 21:45:00,
2013-01-18 16:50:00,35.4,14.1,30.53,WNW,288,0.0,3.0,41,0.00,,---,0.00,VWS V14.01,2013-01-18 21:50:00,
2013-01-18 16:55:00,35.2,15.0,30.53,West,271,0.0,3.0,43,0.00,,---,0.00,VWS V14.01,2013-01-18 21:55:00,
2013-01-18 17:00:00,34.9,14.1,30.53,West,271,0.0,3.0,42,0.00,,---,0.00,VWS V14.01,2013-01-18 22:00:00,
2013-01-18 17:05:00,34.6,13.9,30.53,West,271,0.0,0.0,42,0.00,,---,0.00,VWS V14.01,2013-01-18 22:05:00,
2013-01-18 17:10:00,34.3,15.2,30.53,West,271,0.0,0.0,45,0.00,,---,0.00,VWS V14.01,2013-01-18 22:10:00,
2013-01-18 17:15:00,34.0,14.9,30.53,West,271,0.0,0.0,45,0.00,,---,0.00,VWS V14.01,2013-01-18 22:15:00,
2013-01-18 17:20:00,33.7,14.6,30.53,West,271,0.0,0.0,45,0.00,,---,0.00,VWS V14.01,2013-01-18 22:20:00,
2013-01-18 17:25:00,33.5,14.4,30.52,West,271,0.0,0.0,45,0.00,,---,0.00,VWS V14.01,2013-01-18 22:25:00,
2013-01-18 17:30:00,33.3,14.3,30.52,West,271,0.0,0.0,45,0.00,,---,0.00,VWS V14.01,2013-01-18 22:30:00,
2013-01-18 17:35:00,33.0,15.0,30.53,West,271,0.0,0.0,47,0.00,,---,0.00,VWS V14.01,2013-01-18 22:35:00,
2013-01-18 17:40:00,32.8,14.8,30.53,West,271,0.0,0.0,47,0.00,,---,0.00,VWS V14.01,2013-01-18 22:40:00,
2013-01-18 17:45:00,32.6,14.6,30.52,West,271,0.0,0.0,47,0.00,,---,0.00,VWS V14.01,2013-01-18 22:45:00,
2013-01-18 17:50:00,32.3,14.8,30.52,West,271,0.0,0.0,48,0.00,,---,0.00,VWS V14.01,2013-01-18 22:50:00,
2013-01-18 17:55:00,32.0,15.9,30.52,West,271,0.0,0.0,51,0.00,,---,0.00,VWS V14.01,2013-01-18 22:55:00,
2013-01-18 18:00:00,31.8,15.3,30.53,West,272,0.0,0.0,50,0.00,,---,0.00,VWS V14.01,2013-01-18 23:00:00,
2013-01-18 18:05:00,31.6,15.6,30.53,West,271,0.0,0.0,51,0.00,,---,0.00,VWS V14.01,2013-01-18 23:05:00,
2013-01-18 18:10:00,31.5,16.4,30.53,West,271,0.0,0.0,53,0.00,,---,0.00,VWS V14.01,2013-01-18 23:10:00,
2013-01-18 18:15:00,31.5,16.8,30.53,West,271,0.0,0.0,54,0.00,,---,0.00,VWS V14.01,2013-01-18 23:15:00,
2013-01-18 18:20:00,31.3,17.0,30.53,West,271,0.0,0.0,55,0.00,,---,0.00,VWS V14.01,2013-01-18 23:20:00,
2013-01-18 18:25:00,31.0,16.7,30.52,West,271,0.0,0.0,55,0.00,,---,0.00,VWS V14.01,2013-01-18 23:25:00,
2013-01-18 18:30:00,30.8,16.5,30.52,West,272,0.0,0.0,55,0.00,,---,0.00,VWS V14.01,2013-01-18 23:30:00,
2013-01-18 18:35:00,30.5,17.5,30.52,West,271,0.0,0.0,58,0.00,,---,0.00,VWS V14.01,2013-01-18 23:35:00,
2013-01-18 18:40:00,30.5,17.1,30.52,West,271,0.0,0.0,57,0.00,,---,0.00,VWS V14.01,2013-01-18 23:40:00,
2013-01-18 18:45:00,30.5,17.1,30.53,West,271,0.0,0.0,57,0.00,,---,0.00,VWS V14.01,2013-01-18 23:45:00,
2013-01-18 18:50:00,30.2,16.8,30.52,West,271,0.0,0.0,57,0.00,,---,0.00,VWS V14.01,2013-01-18 23:50:00,
2013-01-18 18:55:00,30.2,17.2,30.53,West,271,0.0,0.0,58,0.00,,---,0.00,VWS V14.01,2013-01-18 23:55:00,
2013-01-18 19:00:00,30.2,17.6,30.53,West,271,0.0,0.0,59,0.00,,---,0.00,VWS V14.01,2013-01-19 00:00:00,
2013-01-18 19:05:00,30.2,16.8,30.52,West,271,0.0,0.0,57,0.00,,---,0.00,VWS V14.01,2013-01-19 00:05:00,
2013-01-18 19:10:00,30.2,17.6,30.52,West,271,0.0,0.0,59,0.00,,---,0.00,VWS V14.01,2013-01-19 00:10:00,
2013-01-18 19:15:00,30.3,17.7,30.52,West,271,0.0,0.0,59,0.00,,---,0.00,VWS V14.01,2013-01-19 00:15:00,
2013-01-18 19:20:00,30.2,16.8,30.52,West,271,0.0,0.0,57,0.00,,---,0.00,VWS V14.01,2013-01-19 00:20:00,
2013-01-18 19:25:00,30.1,17.5,30.52,West,271,0.0,0.0,59,0.00,,---,0.00,VWS V14.01,2013-01-19 00:25:00,
2013-01-18 19:30:00,30.0,17.0,30.52,West,271,0.0,0.0,58,0.00,,---,0.00,VWS V14.01,2013-01-19 00:30:00,
2013-01-18 19:35:00,29.9,16.1,30.52,West,271,0.0,0.0,56,0.00,,---,0.00,VWS V14.01,2013-01-19 00:35:00,
2013-01-18 19:40:00,30.2,16.4,30.52,West,271,0.0,0.0,56,0.00,,---,0.00,VWS V14.01,2013-01-19 00:40:00,
2013-01-18 19:45:00,30.5,16.7,30.52,SE,142,1.0,1.0,56,0.00,,---,0.00,VWS V14.01,2013-01-19 00:45:00,
2013-01-18 19:50:00,30.6,16.4,30.52,SE,145,0.0,2.0,55,0.00,,---,0.00,VWS V14.01,2013-01-19 00:50:00,
2013-01-18 19:55:00,30.7,16.0,30.52,SE,145,0.0,2.0,54,0.00,,---,0.00,VWS V14.01,2013-01-19 00:55:00,
2013-01-18 20:00:00,30.8,16.1,30.52,SSW,197,0.0,2.0,54,0.00,,---,0.00,VWS V14.01,2013-01-19 01:00:00,
2013-01-18 20:05:00,30.6,16.4,30.52,SE,128,0.0,1.0,55,0.00,,---,0.00,VWS V14.01,2013-01-19 01:05:00,
2013-01-18 20:10:00,30.6,15.9,30.52,SE,132,0.0,1.0,54,0.00,,---,0.00,VWS V14.01,2013-01-19 01:10:00,
2013-01-18 20:15:00,30.5,16.3,30.52,SE,146,0.0,1.0,55,0.00,,---,0.00,VWS V14.01,2013-01-19 01:15:00,
2013-01-18 20:20:00,30.7,16.0,30.52,SSW,201,0.0,3.0,54,0.00,,---,0.00,VWS V14.01,2013-01-19 01:20:00,
2013-01-18 20:25:00,30.8,15.7,30.52,SE,132,0.0,3.0,53,0.00,,---,0.00,VWS V14.01,2013-01-19 01:25:00,
2013-01-18 20:30:00,31.0,15.9,30.52,SW,231,0.0,3.0,53,0.00,,---,0.00,VWS V14.01,2013-01-19 01:30:00,
2013-01-18 20:35:00,31.1,15.5,30.52,ESE,123,1.0,3.0,52,0.00,,---,0.00,VWS V14.01,2013-01-19 01:35:00,
2013-01-18 20:40:00,31.2,15.6,30.52,ESE,122,1.0,3.0,52,0.00,,---,0.00,VWS V14.01,2013-01-19 01:40:00,
2013-01-18 20:45:00,31.2,15.6,30.52,SE,136,0.0,3.0,52,0.00,,---,0.00,VWS V14.01,2013-01-19 01:45:00,
2013-01-18 20:50:00,31.1,15.5,30.52,SSE,148,0.0,3.0,52,0.00,,---,0.00,VWS V14.01,2013-01-19 01:50:00,
2013-01-18 20:55:00,31.1,15.5,30.52,SSE,149,0.0,3.0,52,0.00,,---,0.00,VWS V14.01,2013-01-19 01:55:00,
2013-01-18 21:00:00,30.9,16.2,30.52,SSE,149,0.0,3.0,54,0.00,,---,0.00,VWS V14.01,2013-01-19 02:00:00,
2013-01-18 21:05:00,30.9,15.8,30.52,SSE,168,0.0,4.0,53,0.00,,---,0.00,VWS V14.01,2013-01-19 02:05:00,
2013-01-18 21:10:00,31.1,16.0,30.52,East,84,0.0,4.0,53,0.00,,---,0.00,VWS V14.01,2013-01-19 02:10:00,
2013-01-18 21:15:00,31.0,16.3,30.52,SSE,155,0.0,4.0,54,0.00,,---,0.00,VWS V14.01,2013-01-19 02:15:00,
2013-01-18 21:20:00,30.8,16.1,30.52,SW,222,0.0,4.0,54,0.00,,---,0.00,VWS V14.01,2013-01-19 02:20:00,
2013-01-18 21:25:00,30.7,16.0,30.52,SSE,148,0.0,4.0,54,0.00,,---,0.00,VWS V14.01,2013-01-19 02:25:00,
2013-01-18 21:30:00,30.6,15.9,30.52,SE,142,0.0,4.0,54,0.00,,---,0.00,VWS V14.01,2013-01-19 02:30:00,
2013-01-18 21:35:00,30.5,16.7,30.52,East,98,2.0,2.0,56,0.00,,---,0.00,VWS V14.01,2013-01-19 02:35:00,
2013-01-18 21:40:00,30.6,15.9,30.52,SE,141,1.0,2.0,54,0.00,,---,0.00,VWS V14.01,2013-01-19 02:40:00,
2013-01-18 21:45:00,30.6,15.9,30.51,SE,139,0.0,2.0,54,0.00,,---,0.00,VWS V14.01,2013-01-19 02:45:00,
2013-01-18 21:50:00,30.6,16.4,30.51,SE,145,0.0,2.0,55,0.00,,---,0.00,VWS V14.01,2013-01-19 02:50:00,
2013-01-18 21:55:00,30.6,16.4,30.51,SW,229,0.0,2.0,55,0.00,,---,0.00,VWS V14.01,2013-01-19 02:55:00,
2013-01-18 22:00:00,30.6,16.4,30.51,SSE,155,2.0,4.0,55,0.00,,---,0.00,VWS V14.01,2013-01-19 03:00:00,
2013-01-18 22:05:00,30.8,16.5,30.51,SSE,150,0.0,0.0,55,0.00,,---,0.00,VWS V14.01,2013-01-19 03:05:00,
2013-01-18 22:10:00,30.7,16.9,30.51,SE,136,0.0,0.0,56,0.00,,---,0.00,VWS V14.01,2013-01-19 03:10:00,
2013-01-18 22:15:00,30.6,17.2,30.50,ESE,121,0.0,1.0,57,0.00,,---,0.00,VWS V14.01,2013-01-19 03:15:00,
2013-01-18 22:20:00,30.6,17.6,30.50,ESE,116,0.0,2.0,58,0.00,,---,0.00,VWS V14.01,2013-01-19 03:20:00,
2013-01-18 22:25:00,30.4,17.4,30.50,SW,228,1.0,3.0,58,0.00,,---,0.00,VWS V14.01,2013-01-19 03:25:00,
2013-01-18 22:30:00,30.6,18.0,30.50,ESE,117,0.0,4.0,59,0.00,,---,0.00,VWS V14.01,2013-01-19 03:30:00,
2013-01-18 22:35:00,30.7,18.1,30.49,WSW,245,0.0,2.0,59,0.00,,---,0.00,VWS V14.01,2013-01-19 03:35:00,
2013-01-18 22:40:00,30.8,18.2,30.49,SE,141,0.0,4.0,59,0.00,,---,0.00,VWS V14.01,2013-01-19 03:40:00,
2013-01-18 22:45:00,31.1,18.9,30.49,ESE,113,2.0,4.0,60,0.00,,---,0.00,VWS V14.01,2013-01-19 03:45:00,
2013-01-18 22:50:00,31.4,19.1,30.49,SW,228,0.0,5.0,60,0.00,,---,0.00,VWS V14.01,2013-01-19 03:50:00,
2013-01-18 22:55:00,31.5,19.2,30.49,SSE,165,0.0,5.0,60,0.00,,---,0.00,VWS V14.01,2013-01-19 03:55:00,
2013-01-18 23:00:00,31.5,19.6,30.48,West,262,1.0,5.0,61,0.00,,---,0.00,VWS V14.01,2013-01-19 04:00:00,
2013-01-18 23:05:00,31.5,20.0,30.48,ESE,113,2.0,2.0,62,0.00,,---,0.00,VWS V14.01,2013-01-19 04:05:00,
2013-01-18 23:10:00,31.5,20.0,30.48,SE,139,0.0,3.0,62,0.00,,---,0.00,VWS V14.01,2013-01-19 04:10:00,
2013-01-18 23:15:00,31.5,20.4,30.48,SSW,195,0.0,3.0,63,0.00,,---,0.00,VWS V14.01,2013-01-19 04:15:00,
2013-01-18 23:20:00,31.6,20.8,30.48,SW,233,1.0,5.0,64,0.00,,---,0.00,VWS V14.01,2013-01-19 04:20:00,
2013-01-18 23:25:00,31.7,20.9,30.47,SSE,152,0.0,5.0,64,0.00,,---,0.00,VWS V14.01,2013-01-19 04:25:00,
2013-01-18 23:30:00,31.8,21.4,30.47,ESE,113,0.0,5.0,65,0.00,,---,0.00,VWS V14.01,2013-01-19 04:30:00,
2013-01-18 23:35:00,31.8,21.4,30.47,West,264,2.0,5.0,65,0.00,,---,0.00,VWS V14.01,2013-01-19 04:35:00,
2013-01-18 23:40:00,32.0,21.6,30.47,WSW,249,1.0,5.0,65,0.00,,---,0.00,VWS V14.01,2013-01-19 04:40:00,
2013-01-18 23:45:00,32.0,21.9,30.47,SSE,165,3.0,7.0,66,0.00,,---,0.00,VWS V14.01,2013-01-19 04:45:00,
2013-01-18 23:50:00,32.1,22.0,30.47,ESE,109,0.0,7.0,66,0.00,,---,0.00,VWS V14.01,2013-01-19 04:50:00,
2013-01-18 23:55:00,32.1,22.0,30.47,SSW,211,1.0,7.0,66,0.00,,---,0.00,VWS V14.01,2013-01-19 04:55:00,